When you browse on this site, cookies collect data to enhance your experience and personalize the content and advertising you see.
Visit our Privacy Policy to learn more. By continuing to use the site, you agree to this use of cookies and data.
  • In Switzerland
  • List of Countries
  • For 7 days
  • Water Temperature
  • Weather Map
  • Weather Widgets
  • user-avatar
    Login

    Hourly Weather Batina

    Today, 22 November, Friday

    Time Temperature Precipitation Wind Pressure Humidity
    00:00 +7°C° 0 mm 2 mps 667 mmHg 55%
    01:00 +7°C° 0 mm 2 mps 667 mmHg 54%
    02:00 +7°C° 0 mm 2 mps 667 mmHg 54%
    03:00 +6°C° 0 mm 2 mps 667 mmHg 54%
    04:00 +7°C° 0 mm 2 mps 667 mmHg 53%
    05:00 +7°C° 0 mm 3 mps 667 mmHg 52%
    06:00 +7°C° 0 mm 3 mps 667 mmHg 52%
    07:00 +9°C° 0 mm 3 mps 668 mmHg 48%
    08:00 +10°C° 0 mm 4 mps 668 mmHg 45%
    09:00 +11°C° 0 mm 4 mps 668 mmHg 41%
    10:00 +11°C° 0 mm 6 mps 668 mmHg 39%
    11:00 +12°C° 0 mm 7 mps 668 mmHg 37%
    12:00 +13°C° 0 mm 9 mps 668 mmHg 35%
    13:00 +12°C° 0 mm 8 mps 667 mmHg 36%
    14:00 +12°C° 0 mm 8 mps 666 mmHg 36%
    15:00 +11°C° 0 mm 7 mps 666 mmHg 36%
    16:00 +10°C° 0 mm 6 mps 666 mmHg 39%
    17:00 +9°C° 0 mm 5 mps 666 mmHg 43%
    18:00 +8°C° 0 mm 4 mps 665 mmHg 46%
    19:00 +7°C° 0 mm 4 mps 665 mmHg 46%
    20:00 +7°C° 0 mm 4 mps 665 mmHg 45%
    21:00 +7°C° 0 mm 5 mps 665 mmHg 45%
    22:00 +7°C° 0 mm 5 mps 665 mmHg 44%
    23:00 +7°C° 0 mm 5 mps 665 mmHg 42%

    Tomorrow, 23 November, Saturday

    Time Temperature Precipitation Wind Pressure Humidity
    00:00 +8°C° 0 mm 6 mps 665 mmHg 40%
    01:00 +8°C° 0 mm 6 mps 664 mmHg 44%
    02:00 +7°C° 0 mm 6 mps 664 mmHg 47%
    03:00 +7°C° 0 mm 6 mps 663 mmHg 50%
    04:00 +8°C° 0 mm 7 mps 663 mmHg 50%
    05:00 +8°C° 0 mm 7 mps 662 mmHg 50%
    06:00 +7°C° 0 mm 8 mps 662 mmHg 49%
    07:00 +7°C° 0.8 mm 8 mps 662 mmHg 56%
    08:00 +7°C° 0.8 mm 8 mps 662 mmHg 62%
    09:00 +6°C° 0.8 mm 8 mps 662 mmHg 68%
    10:00 +6°C° 3.8 mm 7 mps 662 mmHg 75%
    11:00 +5°C° 3.8 mm 6 mps 661 mmHg 81%
    12:00 +6°C° 3.8 mm 4 mps 661 mmHg 87%
    13:00 +6°C° 2.2 mm 5 mps 661 mmHg 87%
    14:00 +6°C° 2.2 mm 5 mps 661 mmHg 87%
    15:00 +5°C° 2.2 mm 6 mps 661 mmHg 86%
    16:00 +4°C° 0.1 mm 6 mps 661 mmHg 86%
    17:00 +5°C° 0.1 mm 5 mps 661 mmHg 87%
    18:00 +5°C° 0.1 mm 5 mps 661 mmHg 87%
    19:00 +4°C° 0 mm 4 mps 661 mmHg 87%
    20:00 +4°C° 0 mm 4 mps 662 mmHg 88%
    21:00 +3°C° 0 mm 4 mps 662 mmHg 89%
    22:00 +3°C° 0 mm 3 mps 662 mmHg 88%
    23:00 +3°C° 0 mm 3 mps 662 mmHg 88%

    Day after tomorrow, 24 November, Sunday

    Time Temperature Precipitation Wind Pressure Humidity
    00:00 +3°C° 0 mm 3 mps 662 mmHg 88%
    01:00 +3°C° 0 mm 3 mps 662 mmHg 89%
    02:00 +3°C° 0 mm 3 mps 662 mmHg 89%
    03:00 +3°C° 0 mm 3 mps 662 mmHg 90%
    04:00 +3°C° 0 mm 3 mps 662 mmHg 89%
    05:00 +2°C° 0 mm 3 mps 663 mmHg 89%
    06:00 +2°C° 0 mm 3 mps 663 mmHg 88%
    07:00 +3°C° 0 mm 4 mps 664 mmHg 81%
    08:00 +3°C° 0 mm 5 mps 664 mmHg 74%
    09:00 +4°C° 0 mm 6 mps 665 mmHg 67%
    10:00 +5°C° 0 mm 6 mps 665 mmHg 65%
    11:00 +7°C° 0 mm 6 mps 665 mmHg 63%
    12:00 +7°C° 0 mm 6 mps 665 mmHg 60%
    13:00 +7°C° 0 mm 6 mps 665 mmHg 62%
    14:00 +7°C° 0 mm 5 mps 665 mmHg 64%
    15:00 +7°C° 0 mm 5 mps 665 mmHg 66%
    16:00 +6°C° 0 mm 4 mps 666 mmHg 70%
    17:00 +5°C° 0 mm 4 mps 666 mmHg 74%
    18:00 +5°C° 0 mm 3 mps 666 mmHg 78%
    19:00 +5°C° 0 mm 2 mps 666 mmHg 80%
    20:00 +5°C° 0 mm 2 mps 666 mmHg 82%
    21:00 +4°C° 0 mm 2 mps 667 mmHg 84%
    22:00 +4°C° 0 mm 2 mps 667 mmHg 84%
    23:00 +4°C° 0 mm 2 mps 667 mmHg 84%

    25 November, Monday

    Time Temperature Precipitation Wind Pressure Humidity
    00:00 +4°C° 0 mm 2 mps 667 mmHg 84%
    01:00 +3°C° 0 mm 2 mps 666 mmHg 83%
    02:00 +3°C° 0 mm 2 mps 666 mmHg 83%
    03:00 +3°C° 0 mm 2 mps 666 mmHg 83%
    04:00 +3°C° 0 mm 2 mps 666 mmHg 83%
    05:00 +3°C° 0 mm 2 mps 667 mmHg 82%
    06:00 +3°C° 0 mm 2 mps 667 mmHg 81%
    07:00 +4°C° 0 mm 2 mps 668 mmHg 75%
    08:00 +6°C° 0 mm 2 mps 668 mmHg 68%
    09:00 +8°C° 0 mm 2 mps 669 mmHg 61%
    10:00 +8°C° 0 mm 2 mps 669 mmHg 57%
    11:00 +9°C° 0 mm 2 mps 669 mmHg 53%
    12:00 +10°C° 0 mm 2 mps 670 mmHg 49%
    13:00 +10°C° 0 mm 2 mps 670 mmHg 48%
    14:00 +12°C° 0 mm 2 mps 670 mmHg 48%
    15:00 +12°C° 0 mm 2 mps 669 mmHg 47%
    16:00 +9°C° 0 mm 2 mps 669 mmHg 54%
    17:00 +8°C° 0 mm 2 mps 669 mmHg 61%
    18:00 +8°C° 0 mm 1 mps 669 mmHg 68%
    19:00 +7°C° 0 mm 1 mps 669 mmHg 70%
    20:00 +7°C° 0 mm 1 mps 669 mmHg 71%
    21:00 +7°C° 0 mm 1 mps 670 mmHg 73%
    22:00 +7°C° 0 mm 1 mps 670 mmHg 73%
    23:00 +6°C° 0 mm 1 mps 669 mmHg 73%

    26 November, Tuesday

    Time Temperature Precipitation Wind Pressure Humidity
    00:00 +6°C° 0 mm 1 mps 669 mmHg 73%
    01:00 +6°C° 0 mm 1 mps 669 mmHg 75%
    02:00 +6°C° 0 mm 1 mps 669 mmHg 76%
    03:00 +6°C° 0 mm 1 mps 669 mmHg 78%
    04:00 +6°C° 0 mm 1 mps 669 mmHg 80%
    05:00 +6°C° 0 mm 1 mps 669 mmHg 81%
    06:00 +6°C° 0 mm 1 mps 669 mmHg 83%
    07:00 +8°C° 0 mm 1 mps 670 mmHg 77%
    08:00 +10°C° 0 mm 1 mps 671 mmHg 72%
    09:00 +11°C° 0 mm 0 mps 672 mmHg 67%
    10:00 +13°C° 0 mm 1 mps 672 mmHg 63%
    11:00 +14°C° 0 mm 1 mps 671 mmHg 60%
    12:00 +14°C° 0 mm 2 mps 671 mmHg 57%
    13:00 +14°C° 0 mm 2 mps 671 mmHg 57%
    14:00 +15°C° 0 mm 2 mps 671 mmHg 57%
    15:00 +15°C° 0 mm 2 mps 671 mmHg 57%
    16:00 +13°C° 0 mm 1 mps 670 mmHg 65%
    17:00 +12°C° 0 mm 1 mps 670 mmHg 72%
    18:00 +9°C° 0 mm 0 mps 670 mmHg 80%
    19:00 +10°C° 0 mm 1 mps 670 mmHg 79%
    20:00 +10°C° 0 mm 1 mps 670 mmHg 78%
    21:00 +9°C° 0 mm 2 mps 670 mmHg 77%
    22:00 +8°C° 0 mm 2 mps 670 mmHg 77%
    23:00 +8°C° 0 mm 2 mps 670 mmHg 77%

    27 November, Wednesday

    Time Temperature Precipitation Wind Pressure Humidity
    00:00 +8°C° 0 mm 2 mps 670 mmHg 77%
    01:00 +8°C° 0 mm 2 mps 669 mmHg 78%
    02:00 +8°C° 0 mm 2 mps 669 mmHg 78%
    03:00 +7°C° 0 mm 2 mps 669 mmHg 79%
    04:00 +7°C° 0 mm 2 mps 669 mmHg 79%
    05:00 +7°C° 0 mm 2 mps 669 mmHg 79%
    06:00 +7°C° 0 mm 2 mps 669 mmHg 79%
    07:00 +9°C° 0 mm 2 mps 670 mmHg 72%
    08:00 +10°C° 0 mm 3 mps 670 mmHg 65%
    09:00 +12°C° 0 mm 3 mps 671 mmHg 58%
    10:00 +13°C° 0 mm 3 mps 671 mmHg 54%
    11:00 +14°C° 0 mm 3 mps 671 mmHg 50%
    12:00 +15°C° 0 mm 4 mps 671 mmHg 46%
    13:00 +14°C° 0 mm 4 mps 670 mmHg 48%
    14:00 +14°C° 0 mm 3 mps 670 mmHg 49%
    15:00 +14°C° 0 mm 3 mps 670 mmHg 50%
    16:00 +13°C° 0 mm 3 mps 670 mmHg 55%
    17:00 +13°C° 0 mm 2 mps 670 mmHg 60%
    18:00 +10°C° 0 mm 2 mps 669 mmHg 65%
    19:00 +10°C° 0 mm 2 mps 670 mmHg 65%
    20:00 +10°C° 0 mm 2 mps 670 mmHg 64%
    21:00 +10°C° 0 mm 2 mps 670 mmHg 63%
    22:00 +10°C° 0 mm 2 mps 670 mmHg 64%
    23:00 +10°C° 0 mm 2 mps 670 mmHg 64%
    Show more